Погода в Челмужах

Россия / Республика Карелия     62°35′16″N   35°35′12″E
темп.,
°C
ветер,
м/с
пор.,
м/с
влажн.,
%
обл.,
%
осадки,
мм/ч
давл.,
гПа
погр.,
м
3 марта, ср
ср300:00−8зсз568919 0.0 101055
03:00−8з45929 0.0 101055
06:00−5з489653 0.1 1007171
09:00−2з7118876 0.4 1005622
12:00−2з5990100 0.0 1003434
15:00−1з61096100 1.4 1000721
18:00−2з4790100 0.4 997118
21:00−4зюз2297100 0.6 99521
4 марта, чт
чт400:00−4с71394100 1.8 994488
03:00−7ссз5891100 2.1 997104
06:00−11ссз459458 0.0 99838
09:00−12сз449529 0.0 100041
12:00−10зсз459459 0.0 1000143
15:00−8зсз469469 0.0 1000180
18:00−9зсз349496 0.0 100033
21:00−10сз449698 0.1 100147
5 марта, пт
пт500:00−11сз449571 0.0 100163
03:00−11с469383 0.2 1003107
06:00−15с349377 0.0 100523
09:00−15ссз349379 0.0 100750
12:00−13сз359158 0.0 1009162
15:00−12зсз448941 0.0 101091
18:00−12з349035 0.0 101146
21:00−12зсз349568 0.1 101233
6 марта, сб
сб600:00−14зсз239760 0.0 101220
03:00−13зсз339678 0.1 101337
06:00−16зсз339880 0.0 101320
09:00−16зюз239688 0.1 101122
12:00−12ююз229343 0.0 101083
15:00−10ю589460 0.0 1006223
18:00−8ю61189100 0.1 1001341
21:00−7ю91493100 0.8 995633
7 марта, вс
вс700:00−6ююв101693100 1.1 989716
03:00−6юв101694100 2.8 983615
06:00−5ююз3596100 3.0 982211
09:00−12юз239380 3.1 98330
12:00−10з4592100 0.1 986349
15:00−8с4792100 0.6 989475
18:00−10ссв71288100 0.3 993615
21:00−11ссв61386100 0.3 997593